QPF
0.00 0.00 0.00 0.00 0.00 0.00 0.00 0.00 0.00 0.00 0.00 0.00 0.00 0.00 0.01 0.04 0.04 0.02 0.02 0.03 0.02 0.04 0.06 0.05 0.07 0.04 0.02 0.01 0.01 0.00 0.01 0.01 0.01 0.01 0.01 0.01 0.02 0.04 0.06 0.05 0.03 0.04 0.05
0.00 0.00 0.00 0.00 0.00 0.00 0.00 0.00 0.00 0.00 0.00 0.01 0.01 0.02 0.03 0.05 0.04 0.04 0.05 0.04 0.02 0.02 0.01 0.02 0.03 0.04 0.04 0.04 0.02 0.01 0.01 0.02 0.02 0.01 0.01 0.00 0.01 0.01 0.02 0.02 0.01 0.01 0.01
0.02 0.03 0.03 0.02 0.01 0.01 0.01 0.01 0.01 0.01 0.03 0.06 0.08 0.13 0.12 0.08 0.05 0.04 0.05 0.05 0.03 0.03 0.03 0.03 0.04 0.04 0.07 0.09 0.07 0.04 0.03 0.03 0.02 0.01 0.01 0.01 0.01 0.01 0.01 0.01 0.00 0.00 0.00
0.10 0.13 0.14 0.10 0.10 0.10 0.07 0.05 0.05 0.06 0.12 0.19 0.22 0.20 0.14 0.08 0.04 0.02 0.02 0.02 0.01 0.01 0.03 0.08 0.08 0.05 0.10 0.12 0.11 0.11 0.09 0.07 0.03 0.01 0.01 0.01 0.00 0.00 0.01 0.01 0.00 0.00 0.00
0.20 0.21 0.14 0.10 0.14 0.13 0.10 0.10 0.13 0.17 0.19 0.20 0.20 0.14 0.09 0.04 0.02 0.03 0.03 0.01 0.01 0.02 0.04 0.11 0.10 0.08 0.09 0.14 0.17 0.19 0.18 0.14 0.09 0.02 0.00 0.00 0.00 0.00 0.01 0.00 0.00 0.00 0.01
0.16 0.19 0.10 0.11 0.22 0.22 0.23 0.28 0.23 0.16 0.11 0.11 0.10 0.05 0.03 0.02 0.02 0.04 0.03 0.01 0.01 0.02 0.02 0.03 0.04 0.06 0.09 0.14 0.19 0.22 0.21 0.17 0.10 0.04 0.01 0.01 0.01 0.00 0.00 0.00 0.01 0.01 0.01
0.16 0.26 0.18 0.22 0.28 0.28 0.26 0.23 0.16 0.09 0.05 0.08 0.06 0.02 0.01 0.01 0.03 0.03 0.02 0.01 0.01 0.02 0.02 0.02 0.02 0.02 0.01 0.05 0.12 0.16 0.20 0.20 0.13 0.08 0.06 0.05 0.02 0.01 0.00 0.01 0.02 0.02 0.01
0.12 0.22 0.18 0.14 0.17 0.18 0.13 0.11 0.13 0.12 0.09 0.12 0.11 0.08 0.04 0.03 0.01 0.01 0.02 0.02 0.02 0.03 0.02 0.02 0.03 0.06 0.08 0.10 0.11 0.10 0.13 0.15 0.16 0.16 0.16 0.12 0.05 0.02 0.04 0.06 0.06 0.03 0.02
0.04 0.07 0.09 0.10 0.15 0.22 0.21 0.20 0.21 0.20 0.16 0.15 0.16 0.13 0.09 0.04 0.03 0.03 0.06 0.06 0.07 0.09 0.08 0.05 0.04 0.04 0.07 0.10 0.11 0.07 0.10 0.10 0.23 0.31 0.23 0.14 0.06 0.04 0.07 0.10 0.09 0.06 0.09
0.03 0.04 0.05 0.05 0.10 0.16 0.17 0.14 0.15 0.15 0.14 0.10 0.11 0.11 0.13 0.10 0.09 0.06 0.07 0.11 0.11 0.13 0.12 0.07 0.05 0.05 0.03 0.04 0.10 0.15 0.14 0.13 0.19 0.16 0.17 0.20 0.15 0.10 0.06 0.06 0.08 0.12 0.13
0.03 0.04 0.04 0.04 0.06 0.08 0.09 0.07 0.07 0.07 0.06 0.04 0.05 0.07 0.14 0.17 0.19 0.15 0.11 0.11 0.08 0.07 0.08 0.05 0.05 0.06 0.03 0.05 0.09 0.17 0.22 0.21 0.12 0.06 0.16 0.27 0.26 0.18 0.10 0.06 0.07 0.11 0.17
0.04 0.06 0.07 0.07 0.09 0.09 0.08 0.08 0.07 0.06 0.04 0.03 0.03 0.05 0.09 0.15 0.20 0.22 0.18 0.13 0.08 0.07 0.05 0.05 0.10 0.12 0.08 0.07 0.06 0.07 0.08 0.07 0.08 0.10 0.16 0.18 0.16 0.14 0.16 0.20 0.20 0.21 0.24
0.03 0.06 0.11 0.12 0.12 0.11 0.10 0.10 0.10 0.08 0.06 0.04 0.05 0.05 0.07 0.13 0.18 0.18 0.16 0.11 0.08 0.07 0.10 0.09 0.13 0.13 0.08 0.06 0.05 0.02 0.01 0.01 0.02 0.06 0.16 0.28 0.32 0.31 0.26 0.22 0.22 0.23 0.24
0.05 0.08 0.09 0.09 0.09 0.09 0.08 0.08 0.05 0.05 0.07 0.10 0.11 0.09 0.09 0.13 0.18 0.14 0.10 0.07 0.06 0.09 0.15 0.11 0.09 0.05 0.02 0.02 0.01 0.00 0.00 0.00 0.00 0.01 0.02 0.03 0.06 0.09 0.13 0.14 0.14 0.15 0.16
0.07 0.08 0.07 0.07 0.08 0.07 0.06 0.05 0.05 0.07 0.10 0.10 0.12 0.15 0.15 0.15 0.15 0.12 0.07 0.04 0.05 0.05 0.07 0.04 0.01 0.01 0.01 0.01 0.00 0.00 0.00 0.00 0.00 0.00 0.00 0.00 0.00 0.01 0.01 0.02 0.03 0.04 0.05
0.06 0.09 0.12 0.12 0.11 0.09 0.12 0.16 0.14 0.10 0.15 0.19 0.22 0.24 0.21 0.21 0.18 0.11 0.05 0.04 0.02 0.01 0.03 0.01 0.00 0.00 0.00 0.00 0.00 0.00 0.00 0.00 0.00 0.00 0.00 0.00 0.01 0.02 0.03 0.02 0.01 0.01 0.01
0.06 0.10 0.15 0.17 0.17 0.21 0.34 0.45 0.42 0.30 0.31 0.32 0.30 0.29 0.27 0.24 0.15 0.06 0.02 0.02 0.01 0.00 0.00 0.00 0.00 0.00 0.00 0.00 0.00 0.00 0.00 0.00 0.00 0.00 0.00 0.00 0.01 0.02 0.02 0.02 0.01 0.01 0.02
0.04 0.04 0.07 0.10 0.13 0.17 0.26 0.48 0.59 0.55 0.47 0.33 0.27 0.27 0.21 0.11 0.04 0.02 0.01 0.00 0.00 0.00 0.00 0.00 0.00 0.00 0.00 0.00 0.00 0.00 0.00 0.01 0.01 0.02 0.02 0.01 0.01 0.01 0.00 0.01 0.01 0.01 0.01
0.03 0.03 0.05 0.09 0.14 0.15 0.17 0.29 0.40 0.40 0.31 0.21 0.18 0.15 0.09 0.04 0.01 0.01 0.00 0.00 0.00 0.00 0.00 0.00 0.00 0.00 0.00 0.00 0.00 0.00 0.00 0.00 0.01 0.01 0.04 0.04 0.04 0.01 0.00 0.00 0.00 0.01 0.01
0.02 0.04 0.08 0.12 0.13 0.10 0.09 0.15 0.20 0.18 0.13 0.07 0.05 0.04 0.02 0.01 0.00 0.00 0.00 0.00 0.00 0.00 0.00 0.00 0.00 0.00 0.00 0.00 0.00 0.00 0.00 0.00 0.00 0.00 0.03 0.08 0.07 0.03 0.01 0.00 0.00 0.00 0.01
0.00 0.03 0.08 0.10 0.08 0.05 0.09 0.14 0.13 0.08 0.04 0.02 0.01 0.00 0.00 0.00 0.00 0.00 0.00 0.00 0.00 0.00 0.00 0.00 0.00 0.00 0.00 0.00 0.00 0.00 0.00 0.00 0.00 0.00 0.01 0.02 0.02 0.01 0.00 0.00 0.00 0.00 0.00
0.00 0.01 0.02 0.04 0.04 0.03 0.06 0.08 0.05 0.03 0.01 0.00 0.00 0.00 0.00 0.00 0.00 0.00 0.00 0.00 0.00 0.00 0.00 0.00 0.00 0.00 0.00 0.00 0.00 0.00 0.00 0.00 0.00 0.00 0.00 0.00 0.00 0.00 0.00 0.00 0.00 0.00 0.00
0.00 0.00 0.00 0.00 0.00 0.00 0.01 0.01 0.01 0.00 0.00 0.00 0.00 0.00 0.00 0.00 0.00 0.00 0.00 0.00 0.00 0.00 0.00 0.00 0.00 0.00 0.00 0.00 0.00 0.00 0.00 0.00 0.00 0.00 0.00 0.00 0.00 0.00 0.00 0.00 0.00 0.00 0.00
0.00 0.00 0.00 0.00 0.00 0.00 0.00 0.00 0.00 0.00 0.00 0.00 0.00 0.00 0.00 0.00 0.00 0.00 0.00 0.00 0.00 0.00 0.00 0.00 0.00 0.00 0.00 0.00 0.00 0.00 0.00 0.00 0.00 0.00 0.00 0.00 0.00 0.00 0.01 0.01 0.00 0.00 0.00
0.00 0.00 0.00 0.00 0.00 0.00 0.00 0.00 0.00 0.00 0.00 0.00 0.00 0.00 0.00 0.00 0.00 0.00 0.00 0.00 0.00 0.00 0.00 0.00 0.00 0.00 0.00 0.00 0.00 0.00 0.00 0.00 0.00 0.00 0.00 0.00 0.00 0.00 0.00 0.01 0.02 0.01 0.00
0.00 0.00 0.00 0.00 0.00 0.00 0.00 0.00 0.00 0.00 0.00 0.00 0.00 0.00 0.00 0.00 0.00 0.00 0.00 0.00 0.00 0.00 0.00 0.00 0.00 0.00 0.00 0.00 0.00 0.00 0.00 0.00 0.00 0.01 0.00 0.00 0.00 0.00 0.00 0.00 0.01 0.02 0.01
MSLP
1013.14 1013.12 1013.04 1012.93 1012.82 1012.76 1012.77 1012.84 1012.96 1013.09 1013.21 1013.28 1013.29 1013.24 1013.14 1013.00 1012.86 1012.72 1012.61 1012.51 1012.45 1012.41 1012.39 1012.42 1012.48 1012.58 1012.73 1012.92 1013.14 1013.38 1013.63 1013.87 1014.11 1014.35 1014.59 1014.84 1015.10 1015.37 1015.64 1015.89 1016.12 1016.33 1016.51
1012.54 1012.52 1012.45 1012.36 1012.28 1012.25 1012.27 1012.36 1012.49 1012.65 1012.79 1012.89 1012.93 1012.91 1012.82 1012.68 1012.51 1012.32 1012.15 1011.99 1011.87 1011.80 1011.76 1011.78 1011.85 1011.97 1012.13 1012.31 1012.51 1012.72 1012.93 1013.14 1013.36 1013.60 1013.86 1014.14 1014.44 1014.76 1015.06 1015.34 1015.59 1015.80 1015.97
1011.90 1011.87 1011.82 1011.76 1011.73 1011.73 1011.79 1011.90 1012.06 1012.24 1012.41 1012.54 1012.61 1012.60 1012.52 1012.37 1012.16 1011.92 1011.67 1011.44 1011.25 1011.12 1011.06 1011.07 1011.14 1011.26 1011.42 1011.61 1011.79 1011.98 1012.17 1012.35 1012.56 1012.79 1013.06 1013.37 1013.71 1014.07 1014.42 1014.74 1015.01 1015.24 1015.43
1011.26 1011.22 1011.18 1011.17 1011.18 1011.23 1011.33 1011.48 1011.66 1011.87 1012.06 1012.21 1012.31 1012.31 1012.23 1012.06 1011.81 1011.51 1011.18 1010.87 1010.61 1010.41 1010.30 1010.28 1010.34 1010.47 1010.63 1010.82 1011.00 1011.18 1011.34 1011.51 1011.70 1011.93 1012.21 1012.54 1012.91 1013.30 1013.70 1014.06 1014.38 1014.65 1014.88
1010.66 1010.60 1010.58 1010.59 1010.64 1010.74 1010.88 1011.06 1011.27 1011.50 1011.71 1011.89 1012.00 1012.02 1011.94 1011.75 1011.46 1011.11 1010.71 1010.32 1009.98 1009.71 1009.54 1009.48 1009.52 1009.63 1009.80 1009.98 1010.17 1010.34 1010.50 1010.65 1010.83 1011.05 1011.33 1011.67 1012.05 1012.47 1012.90 1013.31 1013.68 1014.00 1014.29
1010.12 1010.04 1010.01 1010.05 1010.13 1010.26 1010.43 1010.64 1010.87 1011.11 1011.34 1011.53 1011.66 1011.70 1011.63 1011.44 1011.13 1010.74 1010.29 1009.83 1009.42 1009.08 1008.86 1008.75 1008.75 1008.85 1009.00 1009.18 1009.36 1009.52 1009.67 1009.82 1009.99 1010.19 1010.46 1010.79 1011.18 1011.61 1012.06 1012.50 1012.91 1013.29 1013.63
1009.65 1009.52 1009.48 1009.52 1009.62 1009.77 1009.96 1010.18 1010.42 1010.67 1010.91 1011.12 1011.27 1011.34 1011.29 1011.12 1010.82 1010.41 1009.94 1009.45 1008.98 1008.59 1008.31 1008.15 1008.12 1008.18 1008.31 1008.47 1008.64 1008.80 1008.93 1009.07 1009.22 1009.41 1009.66 1009.97 1010.34 1010.76 1011.20 1011.66 1012.10 1012.51 1012.90
1009.23 1009.06 1008.99 1009.01 1009.10 1009.24 1009.43 1009.65 1009.89 1010.14 1010.40 1010.63 1010.81 1010.92 1010.91 1010.78 1010.52 1010.14 1009.68 1009.18 1008.70 1008.28 1007.96 1007.76 1007.67 1007.70 1007.79 1007.92 1008.07 1008.20 1008.32 1008.44 1008.57 1008.74 1008.96 1009.24 1009.57 1009.96 1010.39 1010.82 1011.26 1011.68 1012.09
1008.87 1008.64 1008.52 1008.50 1008.56 1008.67 1008.84 1009.04 1009.27 1009.53 1009.80 1010.05 1010.27 1010.43 1010.48 1010.42 1010.23 1009.91 1009.50 1009.04 1008.57 1008.15 1007.81 1007.58 1007.45 1007.43 1007.47 1007.56 1007.67 1007.77 1007.87 1007.96 1008.07 1008.21 1008.39 1008.63 1008.93 1009.27 1009.65 1010.04 1010.44 1010.84 1011.23
1008.55 1008.26 1008.07 1007.99 1008.00 1008.07 1008.20 1008.38 1008.59 1008.84 1009.11 1009.39 1009.66 1009.87 1010.00 1010.02 1009.92 1009.69 1009.37 1008.98 1008.56 1008.17 1007.84 1007.59 1007.43 1007.36 1007.35 1007.38 1007.44 1007.50 1007.55 1007.62 1007.70 1007.81 1007.96 1008.16 1008.41 1008.70 1009.01 1009.35 1009.69 1010.04 1010.39
1008.29 1007.93 1007.67 1007.51 1007.45 1007.46 1007.54 1007.68 1007.87 1008.10 1008.38 1008.69 1008.99 1009.26 1009.46 1009.57 1009.58 1009.46 1009.24 1008.95 1008.62 1008.28 1007.98 1007.74 1007.56 1007.45 1007.38 1007.35 1007.35 1007.35 1007.36 1007.39 1007.44 1007.53 1007.65 1007.82 1008.02 1008.26 1008.51 1008.78 1009.05 1009.33 1009.61
1008.11 1007.67 1007.33 1007.09 1006.94 1006.88 1006.90 1006.99 1007.15 1007.38 1007.66 1007.97 1008.30 1008.62 1008.89 1009.09 1009.19 1009.18 1009.08 1008.90 1008.67 1008.43 1008.18 1007.96 1007.78 1007.64 1007.53 1007.44 1007.37 1007.31 1007.27 1007.26 1007.28 1007.35 1007.45 1007.59 1007.76 1007.95 1008.15 1008.35 1008.55 1008.75 1008.96
1008.01 1007.50 1007.07 1006.74 1006.51 1006.38 1006.34 1006.39 1006.51 1006.72 1006.99 1007.31 1007.65 1008.00 1008.32 1008.58 1008.77 1008.86 1008.88 1008.82 1008.70 1008.55 1008.38 1008.21 1008.05 1007.89 1007.74 1007.60 1007.47 1007.35 1007.26 1007.21 1007.21 1007.25 1007.34 1007.46 1007.61 1007.77 1007.93 1008.08 1008.22 1008.34 1008.47
1008.00 1007.42 1006.92 1006.51 1006.20 1006.00 1005.91 1005.91 1006.00 1006.19 1006.44 1006.75 1007.10 1007.45 1007.79 1008.10 1008.34 1008.52 1008.64 1008.69 1008.69 1008.64 1008.56 1008.46 1008.33 1008.18 1008.01 1007.83 1007.65 1007.48 1007.34 1007.25 1007.21 1007.23 1007.31 1007.43 1007.57 1007.71 1007.84 1007.95 1008.04 1008.11 1008.17
1008.06 1007.44 1006.88 1006.41 1006.04 1005.78 1005.64 1005.61 1005.68 1005.84 1006.07 1006.36 1006.69 1007.04 1007.37 1007.69 1007.97 1008.20 1008.39 1008.54 1008.64 1008.70 1008.72 1008.69 1008.61 1008.49 1008.32 1008.12 1007.91 1007.70 1007.51 1007.38 1007.32 1007.31 1007.38 1007.48 1007.61 1007.75 1007.86 1007.95 1008.01 1008.03 1008.04
1008.17 1007.53 1006.95 1006.44 1006.04 1005.75 1005.58 1005.52 1005.57 1005.71 1005.92 1006.19 1006.48 1006.80 1007.11 1007.41 1007.69 1007.96 1008.20 1008.42 1008.60 1008.76 1008.87 1008.92 1008.91 1008.83 1008.69 1008.49 1008.26 1008.02 1007.80 1007.64 1007.53 1007.51 1007.54 1007.63 1007.75 1007.87 1007.97 1008.04 1008.07 1008.06 1008.03
1008.30 1007.69 1007.11 1006.61 1006.20 1005.91 1005.73 1005.67 1005.70 1005.83 1006.01 1006.25 1006.50 1006.77 1007.04 1007.31 1007.57 1007.84 1008.10 1008.37 1008.62 1008.85 1009.04 1009.18 1009.24 1009.22 1009.11 1008.93 1008.71 1008.46 1008.22 1008.02 1007.88 1007.81 1007.81 1007.87 1007.96 1008.05 1008.13 1008.17 1008.18 1008.14 1008.07
1008.44 1007.89 1007.36 1006.89 1006.51 1006.24 1006.07 1006.01 1006.05 1006.16 1006.32 1006.52 1006.74 1006.96 1007.18 1007.40 1007.63 1007.87 1008.14 1008.42 1008.71 1009.00 1009.26 1009.46 1009.59 1009.63 1009.58 1009.43 1009.22 1008.98 1008.72 1008.50 1008.32 1008.21 1008.17 1008.17 1008.21 1008.26 1008.30 1008.31 1008.28 1008.21 1008.11
1008.56 1008.11 1007.67 1007.27 1006.94 1006.70 1006.57 1006.52 1006.56 1006.66 1006.81 1006.98 1007.15 1007.33 1007.50 1007.67 1007.86 1008.07 1008.31 1008.59 1008.89 1009.20 1009.50 1009.76 1009.95 1010.05 1010.04 1009.95 1009.77 1009.54 1009.29 1009.04 1008.83 1008.68 1008.57 1008.52 1008.49 1008.48 1008.46 1008.42 1008.34 1008.23 1008.07
1008.66 1008.34 1008.01 1007.71 1007.45 1007.27 1007.16 1007.14 1007.18 1007.28 1007.41 1007.55 1007.70 1007.83 1007.96 1008.08 1008.22 1008.40 1008.60 1008.86 1009.15 1009.46 1009.78 1010.06 1010.29 1010.43 1010.47 1010.42 1010.28 1010.08 1009.84 1009.59 1009.35 1009.15 1008.99 1008.87 1008.77 1008.69 1008.60 1008.49 1008.35 1008.18 1007.96
1008.75 1008.57 1008.36 1008.16 1007.99 1007.87 1007.80 1007.79 1007.84 1007.93 1008.05 1008.17 1008.29 1008.40 1008.49 1008.58 1008.69 1008.82 1008.99 1009.20 1009.46 1009.75 1010.05 1010.34 1010.58 1010.75 1010.83 1010.82 1010.72 1010.55 1010.33 1010.08 1009.83 1009.60 1009.39 1009.20 1009.04 1008.88 1008.72 1008.54 1008.33 1008.08 1007.79
1008.80 1008.77 1008.69 1008.60 1008.51 1008.44 1008.41 1008.42 1008.47 1008.55 1008.65 1008.76 1008.87 1008.97 1009.05 1009.12 1009.20 1009.30 1009.42 1009.60 1009.81 1010.06 1010.32 1010.58 1010.81 1010.99 1011.09 1011.11 1011.05 1010.91 1010.72 1010.49 1010.24 1009.99 1009.75 1009.51 1009.29 1009.07 1008.83 1008.58 1008.30 1007.98 1007.61
1008.83 1008.92 1008.96 1008.97 1008.95 1008.93 1008.93 1008.95 1009.00 1009.08 1009.18 1009.28 1009.39 1009.49 1009.57 1009.65 1009.71 1009.79 1009.89 1010.02 1010.18 1010.37 1010.58 1010.80 1011.00 1011.16 1011.27 1011.31 1011.27 1011.17 1011.02 1010.81 1010.58 1010.33 1010.07 1009.81 1009.54 1009.27 1008.98 1008.68 1008.33 1007.95 1007.51
1008.79 1008.99 1009.13 1009.22 1009.27 1009.30 1009.32 1009.35 1009.40 1009.48 1009.58 1009.70 1009.82 1009.94 1010.04 1010.14 1010.22 1010.29 1010.37 1010.46 1010.58 1010.71 1010.87 1011.03 1011.18 1011.31 1011.40 1011.45 1011.44 1011.37 1011.24 1011.07 1010.86 1010.63 1010.37 1010.10 1009.82 1009.52 1009.20 1008.86 1008.47 1008.03 1007.54
1008.66 1008.94 1009.17 1009.33 1009.44 1009.51 1009.56 1009.61 1009.67 1009.75 1009.87 1010.01 1010.16 1010.31 1010.46 1010.58 1010.69 1010.78 1010.86 1010.93 1011.01 1011.09 1011.19 1011.29 1011.40 1011.49 1011.56 1011.60 1011.60 1011.55 1011.45 1011.31 1011.13 1010.92 1010.69 1010.43 1010.15 1009.84 1009.51 1009.15 1008.74 1008.27 1007.74
1008.40 1008.75 1009.05 1009.28 1009.45 1009.56 1009.65 1009.73 1009.81 1009.92 1010.06 1010.23 1010.43 1010.63 1010.82 1011.00 1011.15 1011.26 1011.35 1011.42 1011.48 1011.53 1011.58 1011.64 1011.69 1011.75 1011.79 1011.82 1011.81 1011.78 1011.70 1011.59 1011.44 1011.26 1011.04 1010.81 1010.54 1010.24 1009.92 1009.55 1009.13 1008.65 1008.11
Thickness
5778 5777 5775 5773 5772 5770 5769 5767 5765 5764 5762 5762 5761 5761 5763 5764 5764 5763 5762 5761 5763 5764 5765 5767 5769 5767 5764 5760 5758 5755 5751 5747 5744 5742 5741 5740 5738 5736 5733 5732 5731 5729 5728
5774 5772 5771 5770 5770 5768 5767 5764 5762 5760 5759 5758 5758 5757 5759 5760 5762 5762 5761 5759 5760 5760 5762 5764 5766 5766 5764 5762 5759 5758 5756 5751 5746 5744 5743 5741 5740 5739 5737 5734 5732 5730 5728
5768 5767 5767 5767 5766 5765 5763 5761 5759 5757 5755 5753 5751 5751 5752 5754 5756 5757 5757 5756 5756 5757 5759 5761 5763 5763 5763 5763 5761 5759 5757 5754 5750 5746 5744 5743 5742 5741 5740 5738 5734 5732 5730
5763 5763 5762 5762 5761 5759 5757 5755 5753 5750 5748 5746 5744 5743 5743 5744 5748 5751 5753 5753 5753 5753 5756 5759 5760 5760 5762 5763 5762 5760 5758 5756 5753 5749 5746 5744 5743 5741 5741 5740 5737 5733 5731
5761 5760 5759 5759 5757 5753 5751 5749 5746 5744 5741 5739 5737 5737 5737 5737 5741 5745 5749 5751 5751 5750 5751 5755 5757 5759 5760 5762 5763 5761 5759 5756 5755 5752 5748 5745 5742 5741 5739 5738 5736 5733 5731
5754 5754 5753 5754 5751 5746 5744 5742 5739 5738 5736 5734 5731 5733 5734 5735 5736 5739 5743 5746 5747 5746 5745 5748 5752 5755 5757 5759 5761 5761 5759 5757 5755 5754 5749 5745 5741 5740 5739 5736 5734 5733 5731
5746 5746 5746 5747 5746 5743 5740 5738 5734 5730 5728 5726 5721 5721 5726 5729 5731 5735 5738 5740 5741 5741 5740 5743 5747 5750 5753 5756 5758 5758 5757 5756 5755 5753 5750 5745 5742 5741 5739 5737 5734 5732 5730
5740 5739 5738 5739 5739 5736 5734 5732 5729 5724 5722 5718 5713 5708 5708 5715 5726 5730 5731 5732 5734 5735 5735 5739 5742 5745 5748 5750 5752 5753 5754 5754 5754 5753 5750 5745 5742 5741 5739 5737 5734 5733 5731
5735 5734 5733 5732 5731 5729 5727 5726 5724 5719 5715 5714 5711 5706 5699 5699 5709 5720 5723 5724 5725 5726 5729 5732 5736 5739 5742 5744 5746 5748 5750 5750 5750 5751 5749 5744 5741 5740 5738 5736 5735 5733 5731
5728 5728 5728 5727 5725 5723 5721 5720 5718 5716 5712 5708 5706 5705 5702 5700 5696 5701 5710 5714 5716 5717 5720 5724 5728 5733 5735 5738 5740 5743 5746 5746 5746 5746 5746 5741 5738 5737 5737 5736 5734 5733 5730
5721 5722 5722 5722 5721 5719 5717 5715 5712 5710 5707 5704 5700 5697 5694 5692 5692 5689 5692 5699 5704 5709 5713 5717 5722 5726 5729 5731 5734 5737 5739 5740 5740 5740 5740 5737 5735 5735 5736 5735 5734 5732 5730
5712 5715 5716 5717 5716 5715 5713 5710 5707 5703 5701 5698 5695 5691 5687 5686 5686 5686 5686 5688 5691 5699 5706 5710 5714 5718 5722 5724 5726 5727 5729 5730 5730 5731 5731 5731 5730 5731 5732 5733 5733 5731 5729
5703 5706 5708 5709 5709 5708 5707 5704 5700 5696 5693 5689 5687 5684 5682 5682 5684 5684 5683 5683 5685 5688 5692 5697 5702 5708 5711 5713 5715 5718 5720 5721 5721 5722 5723 5724 5723 5724 5725 5727 5727 5727 5726
5693 5697 5699 5701 5701 5700 5698 5694 5690 5686 5683 5681 5679 5677 5676 5677 5679 5680 5679 5678 5675 5675 5678 5681 5688 5694 5698 5702 5706 5709 5711 5712 5713 5713 5714 5715 5715 5715 5716 5718 5718 5718 5718
5681 5686 5689 5691 5691 5689 5686 5682 5678 5675 5673 5672 5672 5671 5671 5672 5673 5673 5674 5674 5670 5665 5665 5669 5675 5682 5686 5691 5696 5699 5701 5703 5704 5705 5706 5706 5706 5706 5707 5708 5709 5709 5710
5667 5671 5675 5677 5677 5676 5674 5672 5668 5666 5664 5664 5665 5665 5665 5664 5664 5665 5667 5668 5666 5662 5658 5661 5665 5671 5675 5681 5685 5688 5691 5693 5695 5697 5698 5699 5698 5697 5697 5699 5700 5699 5699
5654 5656 5659 5661 5662 5662 5662 5661 5660 5658 5657 5657 5657 5658 5657 5657 5657 5658 5660 5660 5659 5658 5654 5654 5657 5661 5666 5670 5674 5678 5680 5682 5684 5687 5690 5691 5689 5688 5688 5689 5691 5691 5690
5643 5644 5646 5647 5650 5651 5652 5653 5652 5652 5650 5649 5649 5649 5649 5649 5649 5649 5650 5651 5650 5651 5649 5645 5647 5651 5655 5660 5664 5666 5668 5670 5672 5675 5678 5679 5678 5677 5677 5678 5680 5682 5683
5635 5635 5635 5637 5638 5640 5642 5644 5644 5643 5642 5641 5641 5641 5641 5642 5642 5642 5643 5644 5644 5644 5643 5639 5637 5641 5646 5650 5653 5655 5657 5657 5659 5661 5663 5663 5663 5664 5666 5667 5667 5669 5671
5630 5629 5628 5628 5629 5630 5632 5634 5633 5632 5630 5630 5632 5633 5633 5635 5635 5636 5637 5637 5638 5636 5634 5631 5630 5633 5636 5639 5641 5642 5644 5646 5647 5650 5650 5650 5649 5650 5652 5653 5654 5655 5657
5624 5623 5622 5620 5620 5621 5623 5623 5622 5622 5621 5621 5623 5624 5625 5626 5628 5630 5630 5630 5631 5629 5627 5625 5624 5625 5625 5627 5627 5630 5631 5633 5635 5636 5637 5637 5637 5638 5639 5639 5640 5641 5645
5618 5616 5615 5613 5612 5613 5614 5615 5615 5614 5614 5614 5614 5615 5616 5618 5621 5624 5625 5625 5626 5623 5621 5620 5618 5617 5616 5616 5617 5618 5618 5619 5618 5622 5622 5623 5624 5625 5627 5628 5628 5629 5633
5612 5609 5607 5607 5607 5607 5608 5609 5609 5609 5608 5608 5608 5608 5609 5612 5615 5616 5617 5617 5617 5617 5618 5616 5614 5611 5609 5608 5609 5609 5607 5606 5606 5607 5608 5608 5611 5611 5614 5616 5616 5618 5621
5606 5602 5600 5601 5602 5602 5603 5602 5602 5602 5601 5600 5601 5601 5602 5603 5607 5609 5609 5609 5609 5610 5611 5611 5609 5606 5604 5603 5602 5601 5600 5598 5597 5597 5596 5593 5595 5596 5599 5601 5603 5605 5608
5601 5597 5595 5595 5596 5596 5598 5597 5596 5593 5592 5591 5593 5595 5597 5597 5600 5603 5602 5600 5601 5601 5605 5605 5604 5601 5599 5597 5596 5595 5590 5586 5582 5581 5580 5577 5577 5578 5581 5584 5587 5590 5594
5598 5594 5591 5591 5592 5592 5594 5592 5590 5588 5585 5585 5586 5589 5592 5592 5593 5595 5594 5593 5591 5590 5593 5595 5593 5591 5589 5587 5586 5583 5579 5573 5567 5563 5563 5561 5560 5560 5561 5565 5568 5572 5577